Seldovia, AK

8:21 PM AKST on January 21, 2018 (GMT -0900)
Seldovia

Weather History for PASO - October, 2012

Change the Weather History Date:

Thursday, October 4, 2012

  Actual Average (PAHO) Record (PAHO)
Temperature  
Mean Temperature 52 °F -  
Max Temperature 57 °F 49 °F 60 °F (2012)
Min Temperature 48 °F 35 °F 22 °F (1970)
Degree Days  
Heating Degree Days 12    
Growing Degree Days 2 (Base 50)    
Moisture  
Dew Point 47 °F    
Average Humidity 81    
Maximum Humidity 93    
Minimum Humidity 72    
Precipitation  
Precipitation 0.04 in - - ()
Sea Level Pressure  
Sea Level Pressure 29.99 in    
Wind  
Wind Speed 5 mph (South)    
Max Wind Speed 14 mph    
Max Gust Speed 28 mph    
Visibility 10 miles    
Events Rain    
Averages and records for this station are not official NWS values.
T = Trace of Precipitation, MM = Missing Value Source: NWS Daily Summary

Daily Weather History Graph

Daily Weather History Graph

Search for Another Location

Airport or City:

Trip Planner

Search our weather history database for the weather conditions in past years. The results will help you decide how hot, cold, wet, or windy it might be!

Date:

Astronomy

Oct. 04, 2012 Rise Set
Actual Time 8:20 AM AKDT 7:28 PM AKDT
Civil Twilight 7:39 AM AKDT 8:09 PM AKDT
Nautical Twilight 6:52 AM AKDT 8:56 PM AKDT
Astronomical Twilight 6:02 AM AKDT 9:45 PM AKDT
Moon 9:00 PM AKDT (10/4) 1:58 PM AKDT (10/4)
Length of Visible Light 12h 29m
Length of Day
11h 08m
Waning Gibbous, 81% of the Moon is Illuminated
Oct 4
Waning Gibbous
Oct 7
Last Quarter
Oct 15
New
Oct 21
First Quarter
Oct 29
Full

Hourly Weather History & Observations

Time (AKDT) Temp. Dew Point Humidity Pressure Visibility Wind Dir Wind Speed Gust Speed Precip Events Conditions
12:53 AM 51.1 °F 48.0 °F 89% 29.94 in 10.0 mi Calm Calm - N/A   Overcast
1:53 AM 51.1 °F 48.0 °F 89% 29.92 in 10.0 mi Variable 5.8 mph - N/A   Overcast
2:53 AM 53.1 °F 46.9 °F 80% 29.92 in 10.0 mi Variable 4.6 mph - N/A   Mostly Cloudy
3:53 AM 50.0 °F 48.0 °F 93% 29.92 in 10.0 mi Calm Calm - N/A   Mostly Cloudy
4:53 AM 53.1 °F 46.9 °F 80% 29.91 in 10.0 mi SSE 5.8 mph - N/A   Overcast
5:53 AM 54.0 °F 46.0 °F 75% 29.91 in 10.0 mi South 8.1 mph 18.4 mph N/A   Mostly Cloudy
6:53 AM 54.0 °F 46.0 °F 75% 29.89 in 10.0 mi South 8.1 mph 19.6 mph N/A   Mostly Cloudy
7:53 AM 55.0 °F 46.0 °F 72% 29.93 in 10.0 mi South 13.8 mph 27.6 mph N/A   Overcast
8:53 AM 53.1 °F 48.0 °F 83% 29.94 in 10.0 mi Variable 3.5 mph - 0.00 in Rain Light Rain
9:53 AM 53.1 °F 48.9 °F 86% 29.94 in 10.0 mi Variable 5.8 mph - 0.02 in Rain Light Rain
10:53 AM 54.0 °F 48.9 °F 83% 29.94 in - Variable 5.8 mph - N/A   Mostly Cloudy
11:53 AM 55.0 °F 48.0 °F 77% 29.94 in 10.0 mi North - - N/A   Mostly Cloudy
12:30 PM 55.4 °F 48.2 °F 77% 29.95 in 9.0 mi North - - N/A   Overcast
12:53 PM 54.0 °F 48.9 °F 83% 29.97 in 8.0 mi SSW 8.1 mph - N/A   Overcast
1:53 PM 55.9 °F 50.0 °F 80% 29.99 in 7.0 mi SSW 8.1 mph - 0.00 in   Overcast
2:26 PM 55.4 °F 50.0 °F 82% 29.99 in - North - - N/A   Unknown
2:53 PM - - N/A% 30.01 in - North - - N/A   Unknown
3:53 PM 54.0 °F 48.0 °F 80% 30.00 in 8.0 mi South 10.4 mph 26.5 mph N/A   Overcast
4:01 PM 53.6 °F 48.2 °F 82% 30.01 in 10.0 mi South 10.4 mph 24.2 mph 0.00 in Rain Light Rain
4:38 PM 53.6 °F 44.6 °F 72% 30.03 in 10.0 mi SSW 9.2 mph 19.6 mph 0.00 in   Mostly Cloudy
4:45 PM 53.6 °F 44.6 °F 72% 30.03 in 10.0 mi SSW 10.4 mph 21.9 mph 0.00 in   Overcast
4:53 PM 53.1 °F 45.0 °F 74% 30.03 in 10.0 mi South 10.4 mph 24.2 mph 0.00 in   Overcast
5:53 PM 51.1 °F 45.0 °F 80% 30.05 in 10.0 mi SSW 10.4 mph - 0.00 in   Overcast
6:53 PM 50.0 °F 45.0 °F 83% 30.06 in 9.0 mi Variable 4.6 mph - 0.00 in Rain Light Rain
7:53 PM 50.0 °F 45.0 °F 83% 30.08 in 9.0 mi South 6.9 mph - 0.00 in Rain Light Rain
8:53 PM 50.0 °F 46.0 °F 86% 30.11 in 9.0 mi South 4.6 mph - 0.01 in Rain Light Rain
9:53 PM 50.0 °F 45.0 °F 83% 30.12 in 10.0 mi South 4.6 mph - 0.00 in Rain Light Rain
10:53 PM 50.0 °F 45.0 °F 83% 30.15 in 10.0 mi Calm Calm - 0.01 in Rain Light Rain
11:53 PM 48.9 °F 45.0 °F 86% 30.17 in 10.0 mi Calm Calm - 0.00 in   Overcast